Погода в Каррик-он-Шанноне

Ирландия     53°56′36″N   8°05′41″W
темп.,
°C
ветер,
м/с
пор.,
м/с
влажн.,
%
обл.,
%
осадки,
мм/ч
давл.,
гПа
погр.,
м
12 августа, пт
пт1201:00+13св12780 0.0 102339
04:00+12св12952 0.0 102242
07:00+13св12930 0.0 102146
10:00+20в12620 0.0 1021376
13:00+26юв11440 0.0 10201152
16:00+27ююв11390 0.0 10181711
19:00+25ю12580 0.0 1018197
22:00+17ссв11900 0.0 101911
13 августа, сб
сб1301:00+16св11973 0.0 101826
04:00+14св12930 0.0 101832
07:00+14ссв12885 0.0 101748
10:00+22св13540 0.0 1017399
13:00+26всв12393 0.0 10161083
16:00+28в11370 0.0 10141708
19:00+25вюв12582 0.0 1014174
22:00+18ссв10925 0.0 101411
14 августа, вс
вс1401:00+16ссв119712 0.0 101311
04:00+15с1197100 0.0 101212
07:00+15сз129334 0.0 101158
10:00+22ссз12645 0.0 1010445
13:00+26зсз1149100 0.0 10091341
16:00+24зсз3356100 0.0 1007521
19:00+16сз2795100 3.0 1007221
22:00+15сз0197100 0.3 100719
15 августа, пн
пн1501:00+14св1199100 0.4 100623
04:00+14сз129982 0.0 100559
07:00+12сз129970 0.0 100574
10:00+17ссз128470 0.0 1005495
13:00+19ссз117197 0.3 10051005
16:00+16сз2595100 1.8 1005303
19:00+15ссз2696100 2.2 1006305
22:00+14ссз2696100 0.3 1008276
16 августа, вт
вт1601:00+13ссз2894100 0.3 1009722
04:00+13ссз289096 0.0 1009743
07:00+13ссз2981100 0.1 1010939
10:00+15с386989 0.0 1012898
13:00+18с35495 0.0 10121439
16:00+19с35452 0.0 10121654
19:00+17ссз35590 0.0 10131218
22:00+11ссз25874 0.0 1016129